Location: La Brionne
(46.1728°N, 1.7849°E)
Time: 17:18:50
(UTC+00:00)

USA 215 - Pass Details

Date: 31 October 2021
Orbit: 1099 x 1109 km, 123.0° (Epoch: 20 November)

Event Time Altitude Azimuth Distance (km) Brightness Sun altitude
Exits shadow 17:32:28 - 55° (NE) 3,098 5.1 -9.6°
Reaches altitude 10° 17:32:49 10° 56° (NE) 2,964 5.0 -9.7°
Maximum altitude 17:39:19 65° 137° (SE) 1,205 3.4 -10.8°
Drops below altitude 10° 17:45:48 10° 219° (SW) 2,957 6.2 -11.9°
Sets 17:48:18 0° 223° (SW) 3,914 7.0 -12.3°
